STARLINK-36319

Last updated on Fri Mar 27 2026 00:02:06 GMT+0000 (Coordinated Universal Time)

1 67970U 26038K 26085.50002314 .00067127 00000+0 20123-2 0 9996 2 67970 97.2850 96.3281 0001303 93.9817 231.5287 15.34238155 5870
UTC large
Height (km)
Speed (km/s)
/
Latitude / Longitude
Inclination (degrees)
Orbital Period (minutes)
Azimuth
Elevation
Range (km)
Doppler Factor

Next 0 passes for location: London (51.5072 / 0.1276)

Sorry there are no passes over London.